Weather reports worldwide

Advertisment
Dalwhinnie, United Kingdom (99005): temperature & dewpoint: 19.09.2018 22:00:00 - 25.09.2018 22:00:00 (BST)Dalwhinnie, United Kingdom (99005): precipitation: 19.09.2018 22:00:00 - 25.09.2018 22:00:00 (BST)
Date & Time tt [°C] td [°C] rr [mm]
25.09.2018 22:00:00 11,5 9,7 0,0
25.09.2018 21:00:00 10,3 9,2 0,0
25.09.2018 20:00:00 10,0 8,8 0,0
25.09.2018 19:00:00 9,6 8,4 0,2
25.09.2018 18:00:00 9,5 7,9 0,0
25.09.2018 17:00:00 9,3 7,9 0,0
25.09.2018 16:00:00 8,6 7,0 0,2
25.09.2018 15:00:00 8,2 6,7 0,2
25.09.2018 14:00:00 7,7 6,1 0,2
25.09.2018 13:00:00 8,9 3,7 0,0
25.09.2018 12:00:00 8,7 1,6 0,0
25.09.2018 11:00:00 9,0 3,2 0,0
25.09.2018 10:00:00 8,0 3,6 0,0
25.09.2018 09:00:00 8,3 3,3 0,0
25.09.2018 08:00:00 7,7 3,5 0,0
25.09.2018 07:00:00 7,7 4,2 0,0
25.09.2018 06:00:00 7,7 5,3 0,0
25.09.2018 05:00:00 7,5 5,0 0,0
25.09.2018 04:00:00 8,0 4,8 0,0
25.09.2018 03:00:00 8,4 4,9 0,0
25.09.2018 02:00:00 8,7 4,3 0,0
25.09.2018 01:00:00 8,5 4,8 0,0
25.09.2018 00:00:00 8,8 3,7 0,0
24.09.2018 23:00:00 8,5 3,9 0,0
24.09.2018 22:00:00 8,4 4,3 0,0
24.09.2018 21:00:00 8,3 4,5 0,0
24.09.2018 20:00:00 8,6 4,7 0,0
24.09.2018 19:00:00 8,7 4,4 0,0
24.09.2018 18:00:00 9,1 4,5 0,0
24.09.2018 17:00:00 9,0 5,2 0,2
24.09.2018 16:00:00 9,7 4,3 0,0
24.09.2018 15:00:00 9,7 4,6 0,0
24.09.2018 14:00:00 10,3 3,4 0,0
24.09.2018 13:00:00 9,2 3,3 0,0
24.09.2018 12:00:00 8,9 3,6 0,0
24.09.2018 11:00:00 8,2 2,8 0,0
24.09.2018 10:00:00 8,0 3,5 0,0
24.09.2018 09:00:00 7,1 3,3 0,0
24.09.2018 08:00:00 5,8 2,6 0,0
24.09.2018 07:00:00 5,5 2,9 0,0
24.09.2018 06:00:00 5,5 3,0 0,0
24.09.2018 05:00:00 5,1 2,3 0,0
24.09.2018 04:00:00 5,2 2,3 0,0
24.09.2018 03:00:00 5,4 1,9 0,0
24.09.2018 02:00:00 5,2 1,2 0,0
24.09.2018 01:00:00 5,0 0,2 0,0
24.09.2018 00:00:00 5,3 0,3 0,0
23.09.2018 23:00:00 4,5 1,1 0,0
23.09.2018 22:00:00 4,1 0,8 0,0
23.09.2018 21:00:00 4,1 1,5 0,0
23.09.2018 20:00:00 6,2 2,3 0,0
23.09.2018 19:00:00 6,7 2,2 0,0
23.09.2018 18:00:00 6,8 2,7 0,0
23.09.2018 17:00:00 9,1 3,5 0,0
23.09.2018 16:00:00 8,3 3,7 1,2
23.09.2018 15:00:00 10,2 3,1 0,0
23.09.2018 14:00:00 8,2 3,9 0,0
23.09.2018 13:00:00 9,3 3,3 0,0
23.09.2018 12:00:00 7,8 3,6 0,0
23.09.2018 11:00:00 7,1 4,0 0,0
23.09.2018 10:00:00 4,8 4,5 0,0
23.09.2018 09:00:00 2,5 2,3 0,0
23.09.2018 08:00:00 1,6 1,3 0,0
23.09.2018 07:00:00 1,5 1,3 0,0
23.09.2018 06:00:00 1,2 1,0 0,0
23.09.2018 05:00:00 1,2 1,0 0,0
23.09.2018 04:00:00 0,5 0,1 0,0
23.09.2018 03:00:00 0,7 0,3 0,0
23.09.2018 02:00:00 1,7 1,3 0,2
23.09.2018 01:00:00 1,7 1,3 0,0
23.09.2018 00:00:00 2,1 1,5 0,0
22.09.2018 23:00:00 2,2 1,5 0,0
22.09.2018 22:00:00 3,6 2,4 0,0
22.09.2018 21:00:00 3,9 2,9 0,0
22.09.2018 20:00:00 5,9 3,6 0,0
22.09.2018 19:00:00 6,5 4,1 0,4
22.09.2018 18:00:00 8,9 3,4 0,0
22.09.2018 17:00:00 8,2 4,9 0,6
22.09.2018 16:00:00 7,6 4,5 0,4
22.09.2018 15:00:00 9,1 3,0 0,0
22.09.2018 14:00:00 8,9 4,2 0,0
22.09.2018 13:00:00 9,2 3,5 0,0
22.09.2018 12:00:00 9,2 4,0 0,0
22.09.2018 11:00:00 8,2 4,0 0,0
22.09.2018 10:00:00 7,2 3,6 0,0
22.09.2018 09:00:00 6,2 2,4 0,0
22.09.2018 08:00:00 6,5 2,0 0,0
22.09.2018 07:00:00 5,9 2,4 0,0
22.09.2018 06:00:00 6,1 2,5 0,0
22.09.2018 05:00:00 6,1 2,8 0,4
22.09.2018 04:00:00 6,1 3,2 0,0
22.09.2018 03:00:00 5,8 2,9 1,0
22.09.2018 02:00:00 5,6 3,4 0,2
22.09.2018 01:00:00 5,7 3,5 0,0
22.09.2018 00:00:00 6,1 3,4 0,2
21.09.2018 23:00:00 6,2 3,6 0,2
21.09.2018 22:00:00 6,2 3,6 0,6
21.09.2018 21:00:00 5,9 3,9 0,6
21.09.2018 20:00:00 7,3 3,4 0,0
21.09.2018 19:00:00 7,3 3,7 0,0
21.09.2018 18:00:00 8,5 3,9 0,0
21.09.2018 17:00:00 9,3 3,0 0,0
21.09.2018 16:00:00 8,8 4,7 0,2
21.09.2018 15:00:00 8,7 5,4 0,0
21.09.2018 14:00:00 8,2 4,1 0,0
21.09.2018 13:00:00 7,6 4,7 0,0
21.09.2018 12:00:00 6,9 5,5 1,0
21.09.2018 11:00:00 7,2 4,7 0,2
21.09.2018 10:00:00 7,2 3,2 0,0
21.09.2018 09:00:00 6,7 3,0 0,0
21.09.2018 08:00:00 6,2 3,2 0,0
21.09.2018 07:00:00 6,2 2,8 0,0
21.09.2018 06:00:00 6,0 3,1 0,0
21.09.2018 05:00:00 5,7 4,5 0,2
21.09.2018 04:00:00 4,9 4,3 0,0
21.09.2018 03:00:00 5,1 4,3 0,4
21.09.2018 02:00:00 5,3 4,2 0,0
21.09.2018 01:00:00 5,5 4,4 0,0
21.09.2018 00:00:00 5,5 4,1 0,0
20.09.2018 23:00:00 5,5 4,3 0,0
20.09.2018 22:00:00 6,1 4,4 0,0
20.09.2018 21:00:00 6,4 4,1 0,0
20.09.2018 20:00:00 7,2 4,8 0,0
20.09.2018 19:00:00 8,7 4,0 0,0
20.09.2018 18:00:00 9,2 3,9 0,0
20.09.2018 17:00:00 10,0 4,2 0,0
20.09.2018 16:00:00 10,5 4,2 0,0
20.09.2018 15:00:00 10,1 4,0 0,0
20.09.2018 14:00:00 10,8 3,7 0,0
20.09.2018 13:00:00 10,2 3,5 0,0
20.09.2018 12:00:00 10,5 4,7 0,0
20.09.2018 11:00:00 10,3 4,8 0,0
20.09.2018 10:00:00 8,6 4,5 0,0
20.09.2018 09:00:00 7,4 3,6 0,0
20.09.2018 08:00:00 7,1 4,1 0,0
20.09.2018 07:00:00 6,7 4,0 0,6
20.09.2018 06:00:00 7,4 3,6 0,0
20.09.2018 05:00:00 7,0 4,2 0,4
20.09.2018 04:00:00 7,2 4,4 0,4
20.09.2018 03:00:00 6,4 3,8 1,8
20.09.2018 02:00:00 6,3 4,0 0,0
20.09.2018 01:00:00 5,6 3,8 3,4
20.09.2018 00:00:00 6,1 4,4 3,4
19.09.2018 23:00:00 6,4 5,1 1,6
19.09.2018 22:00:00 6,4 4,0 1,4

tt = temperature
td = dewpoint
rr = precipitation

Next stations